SHIJIAN-30C

Last updated on Thu Dec 18 2025 00:02:05 GMT+0000 (Coordinated Universal Time)

1 66547U 25266C 25351.70443054 .00009666 00000+0 51907-3 0 9993 2 66547 51.7987 309.6215 0011604 9.1158 351.0027 15.15482502 4330
UTC large
Height (km)
Speed (km/s)
/
Latitude / Longitude
Inclination (degrees)
Orbital Period (minutes)
Azimuth
Elevation
Range (km)
Doppler Factor

Next 0 passes for location: London (51.5072 / 0.1276)

Sorry there are no passes over London.